Terug naar catalogus

EUTE 117 WEST A(SATMEX 8

ActiefCommunicatieGEO
NORAD 39122·PAYLOAD·🇪🇺 EU

Gelanceerd Mar 26, 2013 vanaf Baikonur Cosmodrome

Loading…

TLE

VersSource: Space-Track

Epoch: Sep 14, 2026, 13:14 UTC

1 39122U 13012A   26257.55200412 -.00000021  00000-0  00000-0 0  9999
2 39122   0.0430 319.0387 0002837 215.6667 260.7589  1.00273183 49320

Volg EUTE 117 WEST A(SATMEX 8 in realtime met AllMySat

Download on the App Store